Other Public Products
Issued by NWS Charleston, SC

Current Version | Previous Version | Text Only | Print | Product List | Glossary Off
Versions: 1 2 3 4 5 6 7 8 9 10 11 12 13 14 15 16 17 18 19 20 21 22 23 24 25 26 27 28 29 30 31 32 33 34 35 36 37 38 39 40 41 42 43 44 45 46 47 48 49 50

000
FPUS82 KCHS 271612
OPUCHS

TEST...KCHS/KSAV Gateway Observations...TEST
National Weather Service Charleston SC
1200 PM EDT SAT MAY 27 2017

NOTE: "fair" indicates few or no clouds below 12,000 feet with no
significant weather and/or obstructions to visibility.

SCZ050-WAZ558-NCZ071-TXZ119-213-PAZ071-DCZ001-FLZ074-172-MI076-
NYZ176-178-MAZ016-IL014-TNZ027-NJZ106-GAZ044-MD014-271700-

...Gateway Observations for Charleston International...

CITY           SKY/WX    TMP DP  RH WIND       PRES   REMARKS
Chas Airport   MOSUNNY   85  65  51 W8        30.01S
Seattle        MOSUNNY   66  51  58 W5        30.10R
Charlotte      MOSUNNY   83  64  52 W8        29.98S
Dallas DFW     PTSUNNY   87  75  67 S23       29.83R HX  96
Dallas Love    PTSUNNY   86  74  67 SW10G21   29.84S HX  94
Philladelphia  PTSUNNY   72  54  53 SW8       29.90S
Wash National  PTSUNNY   71  59  65 CALM      29.91F
Baltimore      CLOUDY    70  56  61 S6        29.89F
Miami          MOSUNNY   93  72  50 NW6       30.06F HX 101
Detroit        PTSUNNY   74  57  55 VRB3      29.94R
Newark         PTSUNNY   71  54  54 E8        29.87S
Laguardia      PTSUNNY   71  53  52 NW7       29.86S
J F K          PTSUNNY   69  58  67 SW13      29.88S
Boston Logan   MOSUNNY   60  52  74 E14       29.87S
Ft. Lauderdale MOSUNNY   91  75  59 S5        30.05F HX 101
Chicago O`Hare CLOUDY    67  53  61 E7        29.91F
Chicago Midway CLOUDY    67  55  65 E8        29.91F
Houston Bush   PTSUNNY   87  74  64 S12G23    29.94F HX  95
Houston Hobby  PTSUNNY   86  74  67 S17G23    29.94S HX  94
Nashville      CLOUDY    73  65  75 S21G32    29.85F
Atlanta        PTSUNNY   79  64  60 SW7       30.06F

$$

GAZ044-118-TXZ119-213-NCZ071-DCZ001-MDZ014-506-PAZ021-071-NJZ106-
NYZ176-178-MAZ106-OHZ011-021-055-MIZ076-KYZ091-ILZ014-INZ047-
MNZ060-ONZ431-271700-

...Gateway Observations for Savannah International...

CITY           SKY/WX    TMP DP  RH WIND       PRES   REMARKS
Savannah Arpt  MOSUNNY   88  61  40 W8        30.04S
Atlanta        PTSUNNY   79  64  60 SW7       30.06F
Charlotte      MOSUNNY   83  64  52 W8        29.98S
Dallas DFW     PTSUNNY   87  75  67 S23       29.83R HX  96
Houston Bush   PTSUNNY   87  74  64 S12G23    29.94F HX  95
Wash National  PTSUNNY   71  59  65 CALM      29.91F
Wash Dulles    PTSUNNY   70  60  70 CALM      29.91F
Baltimore      CLOUDY    70  56  61 S6        29.89F
Philadelphia   PTSUNNY   72  54  53 SW8       29.90S
Newark         PTSUNNY   71  54  54 E8        29.87S
Laguardia      PTSUNNY   71  53  52 NW7       29.86S
J F K          PTSUNNY   69  58  67 SW13      29.88S
Boston         MOSUNNY   60  52  74 E14       29.87S
Pittsburg      CLOUDY    62  59  90 E6        29.90S
Akron          CLOUDY    67  58  72 CALM      29.91R
Cleveland      MOSUNNY   72  57  59 NE6       29.91S
Cincinnati     CLOUDY    74  67  78 SW6       29.89R
Columbus       CLOUDY    73  67  80 CALM      29.86S
Detroit        PTSUNNY   74  57  55 VRB3      29.94R
Chicago O`Hare CLOUDY    67  53  61 E7        29.91F
Minneapolis    PTSUNNY   70  43  37 VRB5      29.90R
Indianapolis   PTSUNNY   70  62  76 W6        29.89R
Toronto Canada PTSUNNY   64  54  68 VRB2      29.90S

$$




USA.gov is the U.S. government's official web portal to all federal, state and local government web resources and services.